| time (UTC) | temp C | wind direction | speed KPH | gust KPH | rain 1hr cm | rain 24hr cm | rain mn cm | humidity % | barometer mb |
| 20260507155411 | 21 | 248 | 6.4 | 8.0 | 0.00 | 0.00 | 0.00 | 61 | 1010.0 |
| 20260507154909 | 21 | 315 | 4.8 | 6.4 | 0.00 | 0.00 | 0.00 | 57 | 1010.0 |
| 20260507154408 | 21 | 270 | 6.4 | 6.4 | 0.00 | 0.00 | 0.00 | 57 | 1009.0 |
| 20260507153910 | 21 | 270 | 3.2 | 3.2 | 0.00 | 0.00 | 0.00 | 57 | 1009.0 |
| 20260507153409 | 22 | 248 | 8.0 | 9.7 | 0.00 | 0.00 | 0.00 | 56 | 1009.0 |
| 20260507152909 | 21 | 202 | 3.2 | 3.2 | 0.00 | 0.00 | 0.00 | 56 | 1010.0 |
| 20260507152409 | 21 | 292 | 0.0 | 0.0 | 0.00 | 0.00 | 0.00 | 57 | 1010.0 |
| 20260507151909 | 21 | 248 | 3.2 | 3.2 | 0.00 | 0.00 | 0.00 | 61 | 1010.0 |
| 20260507151409 | 21 | 292 | 8.0 | 8.0 | 0.00 | 0.00 | 0.00 | 62 | 1010.0 |
| 20260507150909 | 21 | 248 | 8.0 | 9.7 | 0.00 | 0.00 | 0.00 | 63 | 1010.0 |
| 20260507150408 | 21 | 248 | 1.6 | 1.6 | 0.00 | 0.00 | 0.00 | 63 | 1010.0 |
| 20260507145910 | 20 | 292 | 9.7 | 9.7 | 0.00 | 0.00 | 0.00 | 61 | 1010.0 |
| 20260507145408 | 21 | 270 | 6.4 | 6.4 | 0.00 | 0.00 | 0.00 | 60 | 1010.0 |
| 20260507144909 | 21 | 292 | 9.7 | 9.7 | 0.00 | 0.00 | 0.00 | 59 | 1010.0 |
| 20260507144409 | 21 | 292 | 6.4 | 6.4 | 0.00 | 0.00 | 0.00 | 57 | 1010.0 |
| 20260507143908 | 21 | 248 | 3.2 | 3.2 | 0.00 | 0.00 | 0.00 | 53 | 1010.0 |
| 20260507143409 | 21 | 202 | 9.7 | 9.7 | 0.00 | 0.00 | 0.00 | 54 | 1010.0 |
| 20260507142908 | 21 | 225 | 11.3 | 11.3 | 0.00 | 0.00 | 0.00 | 56 | 1010.0 |
| 20260507142409 | 21 | 225 | 9.7 | 11.3 | 0.00 | 0.00 | 0.00 | 54 | 1010.0 |
| 20260507141910 | 21 | 248 | 12.9 | 14.5 | 0.00 | 0.00 | 0.00 | 46 | 1010.0 |
| 20260507141409 | 21 | 248 | 14.5 | 17.7 | 0.00 | 0.00 | 0.00 | 45 | 1010.0 |
| 20260507140909 | 21 | 225 | 9.7 | 9.7 | 0.00 | 0.00 | 0.00 | 45 | 1010.0 |
| 20260507140409 | 21 | 225 | 9.7 | 9.7 | 0.00 | 0.00 | 0.00 | 51 | 1010.0 |
| 20260507135909 | 22 | 248 | 12.9 | 14.5 | 0.00 | 0.00 | 0.00 | 45 | 1010.0 |
| 20260507135410 | 22 | 248 | 9.7 | 9.7 | 0.00 | 0.00 | 0.00 | 46 | 1010.0 |
| 20260507134909 | 22 | 225 | 12.9 | 14.5 | 0.00 | 0.00 | 0.00 | 47 | 1010.0 |
| 20260507134409 | 22 | 292 | 9.7 | 9.7 | 0.00 | 0.00 | 0.00 | 54 | 1010.0 |
| 20260507133908 | 21 | 202 | 9.7 | 11.3 | 0.00 | 0.00 | 0.00 | 53 | 1010.0 |
| 20260507133408 | 21 | 202 | 11.3 | 11.3 | 0.00 | 0.00 | 0.00 | 54 | 1010.0 |
| 20260507132909 | 22 | 225 | 12.9 | 14.5 | 0.00 | 0.00 | 0.00 | 56 | 1010.0 |
| 20260507132409 | 22 | 202 | 12.9 | 16.1 | 0.00 | 0.00 | 0.00 | 55 | 1010.0 |
| 20260507131909 | 22 | 225 | 11.3 | 11.3 | 0.00 | 0.00 | 0.00 | 52 | 1010.0 |
| 20260507131409 | 22 | 225 | 9.7 | 9.7 | 0.00 | 0.00 | 0.00 | 49 | 1010.0 |
| 20260507130908 | 22 | 180 | 8.0 | 9.7 | 0.00 | 0.00 | 0.00 | 43 | 1010.0 |
| 20260507130408 | 22 | 202 | 9.7 | 9.7 | 0.00 | 0.00 | 0.00 | 46 | 1010.0 |
| 20260507125909 | 22 | 202 | 9.7 | 9.7 | 0.00 | 0.00 | 0.00 | 45 | 1010.0 |
| 20260507125409 | 22 | 248 | 12.9 | 14.5 | 0.00 | 0.00 | 0.00 | 46 | 1010.0 |
| 20260507124908 | 22 | 202 | 12.9 | 12.9 | 0.00 | 0.00 | 0.00 | 45 | 1010.0 |
| 20260507124408 | 23 | 248 | 9.7 | 9.7 | 0.00 | 0.00 | 0.00 | 44 | 1010.0 |
| 20260507123909 | 23 | 248 | 9.7 | 9.7 | 0.00 | 0.00 | 0.00 | 42 | 1010.0 |
| 20260507123408 | 25 | 248 | 12.9 | 14.5 | 0.00 | 0.00 | 0.00 | 37 | 1010.0 |
| 20260507122909 | 25 | 180 | 8.0 | 9.7 | 0.00 | 0.00 | 0.00 | 33 | 1009.0 |
| 20260507122408 | 25 | 248 | 4.8 | 4.8 | 0.00 | 0.00 | 0.00 | 35 | 1009.0 |
| 20260507121909 | 25 | 135 | 4.8 | 6.4 | 0.00 | 0.00 | 0.00 | 36 | 1009.0 |
| 20260507121408 | 25 | 68 | 9.7 | 9.7 | 0.00 | 0.00 | 0.00 | 37 | 1010.0 |
| 20260507120908 | 26 | 68 | 6.4 | 6.4 | 0.00 | 0.00 | 0.00 | 37 | 1010.0 |
| 20260507120409 | 26 | 112 | 4.8 | 4.8 | 0.00 | 0.00 | 0.00 | 33 | 1010.0 |
| 20260507115908 | 26 | 112 | 1.6 | 1.6 | 0.00 | 0.00 | 0.00 | 35 | 1010.0 |
| 20260507115409 | 25 | 112 | 8.0 | 8.0 | 0.00 | 0.00 | 0.00 | 33 | 1010.0 |
| 20260507114908 | 25 | 22 | 0.0 | 0.0 | 0.00 | 0.00 | 0.00 | 33 | 1010.0 |
| 20260507114408 | 24 | 68 | 0.0 | 0.0 | 0.00 | 0.00 | 0.00 | 34 | 1010.0 |
| 20260507113908 | 23 | 112 | 3.2 | 3.2 | 0.00 | 0.00 | 0.00 | 31 | 1010.0 |
| 20260507113408 | 23 | 112 | 9.7 | 9.7 | 0.00 | 0.00 | 0.00 | 29 | 1010.0 |
| 20260507112909 | 23 | 68 | 8.0 | 8.0 | 0.00 | 0.00 | 0.00 | 25 | 1010.0 |
| 20260507112409 | 23 | 68 | 8.0 | 8.0 | 0.00 | 0.00 | 0.00 | 34 | 1010.0 |
| 20260507111909 | 23 | 45 | 1.6 | 1.6 | 0.00 | 0.00 | 0.00 | 36 | 1010.0 |
| 20260507111409 | 22 | 90 | 6.4 | 8.0 | 0.00 | 0.00 | 0.00 | 35 | 1010.0 |
| 20260507110909 | 22 | 68 | 9.7 | 11.3 | 0.00 | 0.00 | 0.00 | 38 | 1010.0 |
| 20260507110409 | 22 | 90 | 6.4 | 8.0 | 0.00 | 0.00 | 0.00 | 37 | 1010.0 |
| 20260507105909 | 22 | 68 | 9.7 | 11.3 | 0.00 | 0.00 | 0.00 | 38 | 1010.0 |
| 20260507105408 | 22 | 112 | 0.0 | 0.0 | 0.00 | 0.00 | 0.00 | 37 | 1010.0 |
| 20260507104912 | 22 | 112 | 6.4 | 6.4 | 0.00 | 0.00 | 0.00 | 38 | 1010.0 |
| 20260507104409 | 22 | 68 | 11.3 | 11.3 | 0.00 | 0.00 | 0.00 | 38 | 1010.0 |
| 20260507103908 | 22 | 90 | 9.7 | 9.7 | 0.00 | 0.00 | 0.00 | 36 | 1010.0 |
| 20260507102955 | 22 | 112 | 8.0 | 8.0 | 0.00 | 0.00 | 0.00 | 33 | 1011.0 |
| 20260507102408 | 22 | 90 | 9.7 | 9.7 | 0.00 | 0.00 | 0.00 | 37 | 1011.0 |
| 20260507101909 | 22 | 68 | 8.0 | 8.0 | 0.00 | 0.00 | 0.00 | 38 | 1011.0 |
| 20260507101409 | 22 | 45 | 6.4 | 8.0 | 0.00 | 0.00 | 0.00 | 42 | 1011.0 |
| 20260507100908 | 22 | 22 | 0.0 | 0.0 | 0.00 | 0.00 | 0.00 | 42 | 1011.0 |
| 20260507100409 | 21 | 45 | 1.6 | 1.6 | 0.00 | 0.00 | 0.00 | 45 | 1011.0 |
| 20260507095909 | 21 | 112 | 4.8 | 4.8 | 0.00 | 0.00 | 0.00 | 43 | 1011.0 |
| 20260507095409 | 21 | 112 | 3.2 | 3.2 | 0.00 | 0.00 | 0.00 | 43 | 1011.0 |
| 20260507094909 | 21 | 68 | 3.2 | 3.2 | 0.00 | 0.00 | 0.00 | 43 | 1011.0 |
| 20260507094409 | 21 | 68 | 8.0 | 8.0 | 0.00 | 0.00 | 0.00 | 42 | 1011.0 |
| 20260507093908 | 21 | 68 | 8.0 | 8.0 | 0.00 | 0.00 | 0.00 | 42 | 1011.0 |
| 20260507093410 | 21 | 45 | 8.0 | 8.0 | 0.00 | 0.00 | 0.00 | 39 | 1011.0 |
| 20260507092908 | 21 | 68 | 9.7 | 9.7 | 0.00 | 0.00 | 0.00 | 41 | 1011.0 |
| 20260507092409 | 21 | 68 | 6.4 | 8.0 | 0.00 | 0.00 | 0.00 | 43 | 1011.0 |
| 20260507091908 | 21 | 68 | 3.2 | 3.2 | 0.00 | 0.00 | 0.00 | 43 | 1011.0 |
| 20260507091409 | 21 | 68 | 6.4 | 6.4 | 0.00 | 0.00 | 0.00 | 43 | 1010.0 |
| 20260507090908 | 21 | 68 | 6.4 | 8.0 | 0.00 | 0.00 | 0.00 | 40 | 1010.0 |
| 20260507090408 | 21 | 112 | 3.2 | 3.2 | 0.00 | 0.00 | 0.00 | 42 | 1010.0 |
| 20260507085909 | 21 | 68 | 4.8 | 6.4 | 0.00 | 0.00 | 0.00 | 44 | 1011.0 |
| 20260507085409 | 21 | 68 | 8.0 | 8.0 | 0.00 | 0.00 | 0.00 | 45 | 1011.0 |
| 20260507084908 | 21 | 22 | 6.4 | 6.4 | 0.00 | 0.00 | 0.00 | 44 | 1011.0 |
| 20260507084409 | 21 | 68 | 4.8 | 4.8 | 0.00 | 0.00 | 0.00 | 47 | 1011.0 |
| 20260507083908 | 21 | 68 | 3.2 | 3.2 | 0.00 | 0.00 | 0.00 | 49 | 1011.0 |
| 20260507083408 | 21 | 0 | 6.4 | 8.0 | 0.00 | 0.00 | 0.00 | 49 | 1011.0 |
| 20260507082908 | 21 | 68 | 4.8 | 6.4 | 0.00 | 0.00 | 0.00 | 49 | 1011.0 |
| 20260507082410 | 22 | 90 | 4.8 | 4.8 | 0.00 | 0.00 | 0.00 | 46 | 1011.0 |
| 20260507081911 | 22 | 68 | 4.8 | 4.8 | 0.00 | 0.00 | 0.00 | 43 | 1011.0 |
| 20260507081408 | 22 | 68 | 8.0 | 8.0 | 0.00 | 0.00 | 0.00 | 44 | 1011.0 |
| 20260507080909 | 21 | 270 | 3.2 | 3.2 | 0.00 | 0.00 | 0.00 | 43 | 1011.0 |
| 20260507080408 | 21 | 0 | 3.2 | 3.2 | 0.00 | 0.00 | 0.00 | 47 | 1011.0 |
| 20260507075908 | 20 | 225 | 0.0 | 0.0 | 0.00 | 0.00 | 0.00 | 51 | 1011.0 |
| 20260507075408 | 20 | 112 | 3.2 | 3.2 | 0.00 | 0.00 | 0.00 | 51 | 1011.0 |
| 20260507074912 | 19 | 90 | 4.8 | 4.8 | 0.00 | 0.00 | 0.00 | 54 | 1011.0 |
| 20260507074409 | 18 | 90 | 1.6 | 1.6 | 0.00 | 0.00 | 0.00 | 58 | 1011.0 |
| 20260507073908 | 18 | 68 | 4.8 | 6.4 | 0.00 | 0.00 | 0.00 | 63 | 1011.0 |
| 20260507073408 | 18 | 68 | 8.0 | 8.0 | 0.00 | 0.00 | 0.00 | 63 | 1011.0 |
| 20260507072908 | 18 | 68 | 6.4 | 6.4 | 0.00 | 0.00 | 0.00 | 69 | 1010.0 |
| 20260507072408 | 18 | 112 | 3.2 | 3.2 | 0.00 | 0.00 | 0.00 | 69 | 1010.0 |
| 20260507071908 | 17 | 68 | 6.4 | 8.0 | 0.00 | 0.00 | 0.00 | 69 | 1010.0 |
| 20260507071409 | 17 | 68 | 11.3 | 12.9 | 0.00 | 0.00 | 0.00 | 72 | 1011.0 |
| 20260507070908 | 17 | 68 | 8.0 | 8.0 | 0.00 | 0.00 | 0.00 | 73 | 1011.0 |
| 20260507070409 | 18 | 68 | 9.7 | 9.7 | 0.00 | 0.00 | 0.00 | 72 | 1011.0 |
| 20260507065909 | 17 | 112 | 11.3 | 12.9 | 0.00 | 0.00 | 0.00 | 72 | 1011.0 |
| 20260507065408 | 17 | 68 | 6.4 | 6.4 | 0.00 | 0.00 | 0.00 | 72 | 1011.0 |
| 20260507064910 | 17 | 68 | 9.7 | 9.7 | 0.00 | 0.00 | 0.00 | 73 | 1011.0 |
| 20260507064408 | 17 | 68 | 11.3 | 11.3 | 0.00 | 0.00 | 0.00 | 71 | 1011.0 |
| 20260507063908 | 18 | 90 | 6.4 | 8.0 | 0.00 | 0.00 | 0.00 | 71 | 1011.0 |
| 20260507063409 | 18 | 90 | 11.3 | 12.9 | 0.00 | 0.00 | 0.00 | 69 | 1011.0 |
| 20260507062908 | 18 | 68 | 3.2 | 3.2 | 0.00 | 0.00 | 0.00 | 68 | 1011.0 |
| 20260507062408 | 18 | 68 | 0.0 | 0.0 | 0.00 | 0.00 | 0.00 | 68 | 1011.0 |
| 20260507061908 | 17 | 0 | 1.6 | 1.6 | 0.00 | 0.00 | 0.00 | 70 | 1011.0 |
| 20260507061410 | 17 | 315 | 0.0 | 0.0 | 0.00 | 0.00 | 0.00 | 70 | 1011.0 |
| 20260507060908 | 17 | 338 | 3.2 | 3.2 | 0.00 | 0.00 | 0.00 | 70 | 1011.0 |
| 20260507060409 | 17 | 315 | 0.0 | 0.0 | 0.00 | 0.00 | 0.00 | 71 | 1011.0 |
| 20260507055909 | 17 | 292 | 1.6 | 1.6 | 0.00 | 0.00 | 0.00 | 72 | 1011.0 |
| 20260507055408 | 17 | 315 | 3.2 | 3.2 | 0.00 | 0.00 | 0.00 | 71 | 1011.0 |
| 20260507054908 | 17 | 338 | 1.6 | 1.6 | 0.00 | 0.00 | 0.00 | 69 | 1011.0 |
| 20260507054412 | 17 | 45 | 0.0 | 0.0 | 0.00 | 0.00 | 0.00 | 68 | 1011.0 |
| 20260507053908 | 17 | 45 | 0.0 | 0.0 | 0.00 | 0.00 | 0.00 | 68 | 1011.0 |
| 20260507053408 | 17 | 45 | 0.0 | 0.0 | 0.00 | 0.00 | 0.00 | 68 | 1011.0 |
| 20260507052909 | 17 | 45 | 0.0 | 0.0 | 0.00 | 0.00 | 0.00 | 69 | 1010.0 |
| 20260507052408 | 17 | 45 | 1.6 | 1.6 | 0.00 | 0.00 | 0.00 | 70 | 1010.0 |
| 20260507051908 | 17 | 45 | 3.2 | 3.2 | 0.00 | 0.00 | 0.00 | 68 | 1010.0 |
| 20260507051409 | 16 | 45 | 0.0 | 0.0 | 0.00 | 0.00 | 0.00 | 68 | 1010.0 |
| 20260507050908 | 16 | 45 | 0.0 | 0.0 | 0.00 | 0.00 | 0.00 | 69 | 1010.0 |
| 20260507050408 | 16 | 45 | 3.2 | 3.2 | 0.00 | 0.00 | 0.00 | 68 | 1010.0 |
| 20260507045910 | 16 | 90 | 1.6 | 1.6 | 0.00 | 0.00 | 0.00 | 69 | 1010.0 |
| 20260507045408 | 16 | 68 | 6.4 | 8.0 | 0.00 | 0.00 | 0.00 | 68 | 1010.0 |
| 20260507044909 | 16 | 45 | 0.0 | 0.0 | 0.00 | 0.00 | 0.00 | 69 | 1010.0 |
| 20260507044408 | 16 | 45 | 0.0 | 0.0 | 0.00 | 0.00 | 0.00 | 69 | 1010.0 |
| 20260507043909 | 15 | 68 | 0.0 | 0.0 | 0.00 | 0.00 | 0.00 | 70 | 1010.0 |
| 20260507043408 | 15 | 68 | 6.4 | 6.4 | 0.00 | 0.00 | 0.00 | 71 | 1010.0 |
| 20260507042909 | 15 | 112 | 3.2 | 3.2 | 0.00 | 0.00 | 0.00 | 72 | 1009.0 |
| 20260507042408 | 15 | 90 | 3.2 | 3.2 | 0.00 | 0.00 | 0.00 | 73 | 1009.0 |
| 20260507041908 | 15 | 68 | 4.8 | 4.8 | 0.00 | 0.00 | 0.00 | 74 | 1009.0 |
| 20260507041408 | 15 | 68 | 6.4 | 6.4 | 0.00 | 0.00 | 0.00 | 75 | 1009.0 |
| 20260507040908 | 15 | 45 | 3.2 | 3.2 | 0.00 | 0.00 | 0.00 | 76 | 1009.0 |
| 20260507040409 | 15 | 68 | 0.0 | 0.0 | 0.00 | 0.00 | 0.00 | 77 | 1009.0 |
| 20260507035908 | 15 | 68 | 6.4 | 8.0 | 0.00 | 0.00 | 0.00 | 77 | 1009.0 |
| 20260507035409 | 15 | 68 | 6.4 | 8.0 | 0.00 | 0.00 | 0.00 | 77 | 1009.0 |
| 20260507034909 | 15 | 68 | 3.2 | 3.2 | 0.00 | 0.00 | 0.00 | 76 | 1009.0 |
| 20260507034408 | 15 | 68 | 4.8 | 4.8 | 0.00 | 0.00 | 0.00 | 76 | 1009.0 |
| 20260507033908 | 15 | 68 | 8.0 | 8.0 | 0.00 | 0.00 | 0.00 | 76 | 1009.0 |
| 20260507033409 | 15 | 68 | 9.7 | 9.7 | 0.00 | 0.00 | 0.00 | 76 | 1009.0 |
| 20260507032909 | 15 | 68 | 9.7 | 9.7 | 0.00 | 0.00 | 0.00 | 75 | 1009.0 |
| 20260507032410 | 15 | 68 | 8.0 | 8.0 | 0.00 | 0.00 | 0.00 | 75 | 1009.0 |
| 20260507031909 | 15 | 68 | 8.0 | 8.0 | 0.00 | 0.00 | 0.00 | 75 | 1009.0 |
| 20260507031409 | 15 | 68 | 8.0 | 8.0 | 0.00 | 0.00 | 0.00 | 75 | 1009.0 |
| 20260507030908 | 15 | 68 | 4.8 | 4.8 | 0.00 | 0.00 | 0.00 | 75 | 1009.0 |
| 20260507030409 | 15 | 68 | 8.0 | 8.0 | 0.00 | 0.00 | 0.00 | 75 | 1009.0 |
| 20260507025908 | 15 | 68 | 4.8 | 4.8 | 0.00 | 0.00 | 0.00 | 74 | 1009.0 |
| 20260507025408 | 15 | 68 | 9.7 | 9.7 | 0.00 | 0.00 | 0.00 | 74 | 1009.0 |
| 20260507024909 | 15 | 68 | 9.7 | 9.7 | 0.00 | 0.00 | 0.00 | 75 | 1009.0 |
| 20260507024409 | 15 | 68 | 8.0 | 8.0 | 0.00 | 0.00 | 0.00 | 76 | 1009.0 |
| 20260507023908 | 15 | 68 | 4.8 | 6.4 | 0.00 | 0.00 | 0.00 | 79 | 1009.0 |
| 20260507023408 | 15 | 68 | 9.7 | 9.7 | 0.00 | 0.00 | 0.00 | 80 | 1009.0 |
| 20260507022909 | 15 | 45 | 6.4 | 6.4 | 0.00 | 0.00 | 0.00 | 83 | 1009.0 |
| 20260507022408 | 15 | 68 | 8.0 | 8.0 | 0.00 | 0.00 | 0.00 | 83 | 1009.0 |
| 20260507021909 | 15 | 90 | 4.8 | 4.8 | 0.00 | 0.00 | 0.00 | 83 | 1009.0 |
| 20260507021408 | 15 | 68 | 8.0 | 8.0 | 0.00 | 0.00 | 0.00 | 83 | 1010.0 |
| 20260507020908 | 15 | 68 | 6.4 | 6.4 | 0.00 | 0.00 | 0.00 | 82 | 1010.0 |
| 20260507020409 | 15 | 90 | 4.8 | 4.8 | 0.00 | 0.00 | 0.00 | 82 | 1010.0 |
| 20260507015910 | 15 | 68 | 8.0 | 8.0 | 0.00 | 0.00 | 0.00 | 81 | 1010.0 |
| 20260507015408 | 15 | 68 | 3.2 | 3.2 | 0.00 | 0.00 | 0.00 | 81 | 1010.0 |
| 20260507014909 | 15 | 68 | 9.7 | 9.7 | 0.00 | 0.00 | 0.00 | 80 | 1010.0 |
| 20260507014408 | 15 | 68 | 6.4 | 8.0 | 0.00 | 0.00 | 0.00 | 79 | 1010.0 |
| 20260507013908 | 15 | 68 | 3.2 | 3.2 | 0.00 | 0.00 | 0.00 | 77 | 1010.0 |
| 20260507013409 | 15 | 68 | 11.3 | 11.3 | 0.00 | 0.00 | 0.00 | 77 | 1010.0 |
| 20260507012909 | 15 | 68 | 6.4 | 8.0 | 0.00 | 0.00 | 0.00 | 76 | 1010.0 |
| 20260507012408 | 15 | 68 | 4.8 | 4.8 | 0.00 | 0.00 | 0.00 | 76 | 1010.0 |
| 20260507011908 | 15 | 45 | 8.0 | 8.0 | 0.00 | 0.00 | 0.00 | 76 | 1010.0 |
| 20260507011409 | 15 | 68 | 3.2 | 3.2 | 0.00 | 0.00 | 0.00 | 77 | 1010.0 |
| 20260507010908 | 15 | 45 | 4.8 | 4.8 | 0.00 | 0.00 | 0.00 | 78 | 1010.0 |
| 20260507010410 | 15 | 90 | 4.8 | 4.8 | 0.00 | 0.00 | 0.00 | 80 | 1010.0 |
| 20260507005908 | 15 | 45 | 8.0 | 8.0 | 0.00 | 0.00 | 0.00 | 82 | 1010.0 |
| 20260507005409 | 15 | 22 | 0.0 | 0.0 | 0.00 | 0.00 | 0.00 | 83 | 1010.0 |
| 20260507004910 | 15 | 68 | 9.7 | 9.7 | 0.00 | 0.00 | 0.00 | 84 | 1010.0 |
| 20260507004409 | 15 | 68 | 6.4 | 6.4 | 0.00 | 0.00 | 0.00 | 84 | 1010.0 |
| 20260507003910 | 15 | 68 | 8.0 | 8.0 | 0.00 | 0.00 | 0.00 | 84 | 1010.0 |
| 20260507003409 | 15 | 68 | 8.0 | 8.0 | 0.00 | 0.00 | 0.00 | 84 | 1010.0 |
| 20260507002908 | 15 | 68 | 4.8 | 4.8 | 0.00 | 0.00 | 0.00 | 85 | 1010.0 |
| 20260507002408 | 15 | 90 | 4.8 | 6.4 | 0.00 | 0.00 | 0.00 | 85 | 1010.0 |
| 20260507001908 | 15 | 68 | 6.4 | 6.4 | 0.00 | 0.00 | 0.00 | 86 | 1010.0 |
| 20260507001408 | 15 | 68 | 3.2 | 3.2 | 0.00 | 0.00 | 0.00 | 86 | 1010.0 |
| 20260507000909 | 15 | 45 | 6.4 | 6.4 | 0.00 | 0.00 | 0.00 | 86 | 1010.0 |
| 20260507000408 | 15 | 45 | 1.6 | 1.6 | 0.00 | 0.00 | 0.00 | 86 | 1010.0 |
| 20260506235909 | 15 | 68 | 1.6 | 1.6 | 0.00 | 0.00 | 0.00 | 86 | 1010.0 |
| 20260506235408 | 15 | 68 | 4.8 | 4.8 | 0.00 | 0.00 | 0.00 | 86 | 1010.0 |
| 20260506234908 | 15 | 45 | 3.2 | 3.2 | 0.00 | 0.00 | 0.00 | 86 | 1010.0 |
| 20260506234408 | 15 | 68 | 4.8 | 4.8 | 0.00 | 0.00 | 0.00 | 87 | 1010.0 |
| 20260506233909 | 15 | 68 | 3.2 | 3.2 | 0.00 | 0.00 | 0.00 | 87 | 1010.0 |
| 20260506233409 | 15 | 22 | 4.8 | 6.4 | 0.00 | 0.00 | 0.00 | 88 | 1010.0 |
| 20260506232908 | 15 | 45 | 4.8 | 4.8 | 0.00 | 0.00 | 0.00 | 89 | 1010.0 |
| 20260506232409 | 15 | 45 | 4.8 | 4.8 | 0.00 | 0.00 | 0.00 | 90 | 1010.0 |
| 20260506231908 | 15 | 45 | 3.2 | 3.2 | 0.00 | 0.00 | 0.00 | 90 | 1010.0 |
| 20260506231408 | 15 | 45 | 3.2 | 3.2 | 0.00 | 0.00 | 0.00 | 91 | 1010.0 |
| 20260506230908 | 15 | 45 | 1.6 | 1.6 | 0.00 | 0.00 | 0.00 | 91 | 1010.0 |
| 20260506230408 | 15 | 45 | 0.0 | 0.0 | 0.00 | 0.00 | 0.00 | 91 | 1010.0 |
| 20260506225909 | 15 | 68 | 0.0 | 0.0 | 0.00 | 0.00 | 0.00 | 91 | 1010.0 |
| 20260506225410 | 15 | 45 | 0.0 | 0.0 | 0.00 | 0.00 | 0.00 | 91 | 1010.0 |
| 20260506224909 | 15 | 338 | 0.0 | 0.0 | 0.00 | 0.00 | 0.00 | 91 | 1010.0 |
| 20260506224409 | 15 | 338 | 3.2 | 3.2 | 0.00 | 0.00 | 0.00 | 90 | 1010.0 |
| 20260506223908 | 15 | 338 | 4.8 | 4.8 | 0.00 | 0.00 | 0.00 | 90 | 1010.0 |
| 20260506223409 | 15 | 22 | 3.2 | 3.2 | 0.00 | 0.00 | 0.00 | 90 | 1010.0 |
| 20260506222908 | 15 | 22 | 4.8 | 6.4 | 0.00 | 0.00 | 0.00 | 90 | 1010.0 |
| 20260506222409 | 15 | 45 | 3.2 | 3.2 | 0.00 | 0.00 | 0.00 | 90 | 1010.0 |
| 20260506221908 | 15 | 68 | 4.8 | 4.8 | 0.00 | 0.00 | 0.00 | 89 | 1010.0 |
| 20260506221408 | 15 | 68 | 4.8 | 4.8 | 0.00 | 0.00 | 0.00 | 89 | 1010.0 |
| 20260506220908 | 15 | 68 | 6.4 | 6.4 | 0.00 | 0.00 | 0.00 | 89 | 1010.0 |
| 20260506220409 | 15 | 22 | 4.8 | 6.4 | 0.00 | 0.00 | 0.00 | 88 | 1010.0 |
| 20260506215909 | 15 | 45 | 3.2 | 3.2 | 0.00 | 0.00 | 0.00 | 88 | 1011.0 |
| 20260506215408 | 15 | 68 | 3.2 | 3.2 | 0.00 | 0.00 | 0.00 | 88 | 1011.0 |
| 20260506214908 | 15 | 45 | 0.0 | 0.0 | 0.00 | 0.00 | 0.00 | 87 | 1011.0 |
| 20260506214410 | 15 | 45 | 1.6 | 1.6 | 0.00 | 0.00 | 0.00 | 87 | 1011.0 |
| 20260506213908 | 15 | 45 | 3.2 | 3.2 | 0.00 | 0.00 | 0.00 | 87 | 1011.0 |
| 20260506213408 | 15 | 45 | 3.2 | 3.2 | 0.00 | 0.00 | 0.00 | 86 | 1011.0 |
| 20260506212908 | 16 | 22 | 3.2 | 3.2 | 0.00 | 0.00 | 0.00 | 86 | 1011.0 |
| 20260506212408 | 16 | 248 | 0.0 | 0.0 | 0.00 | 0.00 | 0.00 | 87 | 1011.0 |
| 20260506211908 | 16 | 248 | 0.0 | 0.0 | 0.00 | 0.00 | 0.00 | 86 | 1011.0 |
| 20260506211408 | 16 | 248 | 0.0 | 0.0 | 0.00 | 0.00 | 0.00 | 86 | 1011.0 |
| 20260506210909 | 15 | 248 | 0.0 | 0.0 | 0.00 | 0.00 | 0.00 | 86 | 1011.0 |
| 20260506210408 | 16 | 248 | 0.0 | 0.0 | 0.00 | 0.00 | 0.00 | 86 | 1011.0 |
| 20260506205908 | 16 | 248 | 0.0 | 0.0 | 0.00 | 0.00 | 0.00 | 86 | 1011.0 |
| 20260506205408 | 16 | 248 | 0.0 | 0.0 | 0.00 | 0.00 | 0.00 | 86 | 1011.0 |
| 20260506204914 | 16 | 248 | 0.0 | 0.0 | 0.00 | 0.00 | 0.00 | 85 | 1011.0 |
| 20260506204409 | 16 | 248 | 0.0 | 0.0 | 0.00 | 0.00 | 0.00 | 85 | 1011.0 |
| 20260506203908 | 16 | 248 | 1.6 | 1.6 | 0.00 | 0.00 | 0.00 | 85 | 1011.0 |
| 20260506203408 | 16 | 248 | 0.0 | 0.0 | 0.00 | 0.00 | 0.00 | 85 | 1011.0 |
| 20260506202908 | 16 | 248 | 0.0 | 0.0 | 0.00 | 0.00 | 0.00 | 85 | 1011.0 |
| 20260506202410 | 16 | 248 | 0.0 | 0.0 | 0.00 | 0.00 | 0.00 | 84 | 1011.0 |
| 20260506201908 | 16 | 248 | 0.0 | 0.0 | 0.00 | 0.00 | 0.00 | 84 | 1011.0 |
| 20260506201410 | 16 | 248 | 0.0 | 0.0 | 0.00 | 0.00 | 0.00 | 84 | 1011.0 |
| 20260506200910 | 16 | 248 | 0.0 | 0.0 | 0.00 | 0.00 | 0.00 | 84 | 1011.0 |
| 20260506200410 | 16 | 248 | 0.0 | 0.0 | 0.00 | 0.00 | 0.00 | 84 | 1011.0 |
| 20260506195908 | 16 | 248 | 0.0 | 0.0 | 0.00 | 0.00 | 0.00 | 84 | 1011.0 |
| 20260506195411 | 16 | 248 | 0.0 | 0.0 | 0.00 | 0.00 | 0.00 | 85 | 1011.0 |
| 20260506194910 | 16 | 248 | 0.0 | 0.0 | 0.00 | 0.00 | 0.00 | 84 | 1011.0 |
| 20260506194409 | 16 | 248 | 0.0 | 0.0 | 0.00 | 0.00 | 0.00 | 84 | 1011.0 |
| 20260506193911 | 16 | 248 | 0.0 | 0.0 | 0.00 | 0.00 | 0.00 | 83 | 1011.0 |
| 20260506193411 | 16 | 248 | 0.0 | 0.0 | 0.00 | 0.00 | 0.00 | 83 | 1011.0 |
| 20260506192911 | 16 | 248 | 0.0 | 0.0 | 0.00 | 0.00 | 0.00 | 83 | 1011.0 |
| 20260506192410 | 17 | 248 | 0.0 | 0.0 | 0.00 | 0.00 | 0.00 | 82 | 1011.0 |
| 20260506191909 | 17 | 248 | 1.6 | 1.6 | 0.00 | 0.00 | 0.00 | 82 | 1011.0 |
| 20260506191412 | 17 | 248 | 0.0 | 0.0 | 0.00 | 0.00 | 0.00 | 82 | 1010.0 |
| 20260506190910 | 17 | 248 | 0.0 | 0.0 | 0.00 | 0.00 | 0.00 | 82 | 1010.0 |
| 20260506190409 | 17 | 248 | 0.0 | 0.0 | 0.00 | 0.00 | 0.00 | 81 | 1010.0 |
| 20260506185908 | 17 | 225 | 0.0 | 0.0 | 0.00 | 0.00 | 0.00 | 81 | 1011.0 |
| 20260506185409 | 17 | 248 | 3.2 | 3.2 | 0.00 | 0.00 | 0.00 | 81 | 1011.0 |
| 20260506184909 | 17 | 248 | 4.8 | 4.8 | 0.00 | 0.00 | 0.00 | 80 | 1011.0 |
| 20260506184408 | 17 | 248 | 6.4 | 6.4 | 0.00 | 0.00 | 0.00 | 79 | 1010.0 |
| 20260506183908 | 17 | 248 | 9.7 | 9.7 | 0.00 | 0.00 | 0.00 | 79 | 1010.0 |
| 20260506183411 | 17 | 202 | 8.0 | 9.7 | 0.00 | 0.00 | 0.00 | 78 | 1010.0 |
| 20260506182908 | 17 | 248 | 9.7 | 9.7 | 0.00 | 0.00 | 0.00 | 79 | 1010.0 |
| 20260506182408 | 17 | 248 | 9.7 | 9.7 | 0.00 | 0.00 | 0.00 | 80 | 1010.0 |
| 20260506181909 | 17 | 248 | 8.0 | 9.7 | 0.00 | 0.00 | 0.00 | 79 | 1010.0 |
| 20260506181409 | 17 | 270 | 9.7 | 11.3 | 0.00 | 0.00 | 0.00 | 79 | 1010.0 |
| 20260506180909 | 17 | 225 | 11.3 | 11.3 | 0.00 | 0.00 | 0.00 | 79 | 1010.0 |
| 20260506180409 | 17 | 248 | 11.3 | 11.3 | 0.00 | 0.00 | 0.00 | 79 | 1010.0 |
| 20260506175909 | 17 | 248 | 9.7 | 9.7 | 0.00 | 0.00 | 0.00 | 78 | 1010.0 |
| 20260506175409 | 17 | 225 | 8.0 | 8.0 | 0.00 | 0.00 | 0.00 | 78 | 1010.0 |
| 20260506174908 | 17 | 248 | 12.9 | 12.9 | 0.00 | 0.00 | 0.00 | 77 | 1010.0 |
| 20260506174413 | 17 | 248 | 8.0 | 9.7 | 0.00 | 0.00 | 0.00 | 78 | 1010.0 |
| 20260506173908 | 17 | 248 | 11.3 | 12.9 | 0.00 | 0.00 | 0.00 | 79 | 1010.0 |
| 20260506173409 | 17 | 225 | 9.7 | 11.3 | 0.00 | 0.00 | 0.00 | 80 | 1010.0 |
| 20260506172908 | 17 | 248 | 9.7 | 11.3 | 0.00 | 0.00 | 0.00 | 80 | 1010.0 |
| 20260506172408 | 17 | 225 | 11.3 | 12.9 | 0.00 | 0.00 | 0.00 | 80 | 1010.0 |
| 20260506171910 | 17 | 248 | 12.9 | 14.5 | 0.00 | 0.00 | 0.00 | 79 | 1010.0 |
| 20260506171409 | 18 | 202 | 11.3 | 12.9 | 0.00 | 0.00 | 0.00 | 78 | 1010.0 |
| 20260506170908 | 18 | 270 | 12.9 | 14.5 | 0.00 | 0.00 | 0.00 | 78 | 1010.0 |
| 20260506170409 | 18 | 248 | 8.0 | 9.7 | 0.00 | 0.00 | 0.00 | 78 | 1010.0 |
| 20260506165909 | 18 | 248 | 11.3 | 11.3 | 0.00 | 0.00 | 0.00 | 78 | 1010.0 |
| 20260506165409 | 18 | 248 | 8.0 | 8.0 | 0.00 | 0.00 | 0.00 | 78 | 1010.0 |
| 20260506164908 | 18 | 292 | 14.5 | 17.7 | 0.00 | 0.00 | 0.00 | 77 | 1010.0 |
| 20260506164408 | 18 | 248 | 11.3 | 11.3 | 0.00 | 0.00 | 0.00 | 77 | 1010.0 |
| 20260506163909 | 18 | 248 | 14.5 | 16.1 | 0.00 | 0.00 | 0.00 | 76 | 1010.0 |
| 20260506163409 | 18 | 248 | 14.5 | 16.1 | 0.00 | 0.00 | 0.00 | 75 | 1010.0 |
| 20260506162910 | 18 | 270 | 12.9 | 14.5 | 0.00 | 0.00 | 0.00 | 76 | 1010.0 |
| 20260506162409 | 19 | 202 | 9.7 | 9.7 | 0.00 | 0.00 | 0.00 | 77 | 1010.0 |
| 20260506161908 | 19 | 248 | 8.0 | 8.0 | 0.00 | 0.00 | 0.00 | 76 | 1010.0 |
| 20260506161408 | 19 | 248 | 12.9 | 12.9 | 0.00 | 0.00 | 0.00 | 76 | 1010.0 |
| 20260506160910 | 19 | 225 | 8.0 | 8.0 | 0.00 | 0.00 | 0.00 | 75 | 1010.0 |
| 20260506160410 | 19 | 248 | 14.5 | 14.5 | 0.00 | 0.00 | 0.00 | 75 | 1010.0 |
| 20260506155911 | 19 | 270 | 12.9 | 14.5 | 0.00 | 0.00 | 0.00 | 75 | 1010.0 |